Location: *
(38.4303°S, 157.0822°W)
Time: 14:28:08
(UTC+00:00)

Meteor 1-27 - Pass Details

Date: 21 May 2024
Orbit: 838 x 890 km, 81.3° (Epoch: 22 June)

Event Time Altitude Azimuth Distance (km) Brightness Sun altitude
Rises 16:45:44 0° 354° (N) 3,482 7.6 -8.6°
Reaches altitude 10° 16:48:10 10° 354° (N) 2,547 6.9 -8.2°
Maximum altitude 16:53:59 86° 81° (E) 895 4.4 -7.1°
Drops below altitude 10° 16:59:49 10° 170° (S) 2,549 6.6 -6.1°
Sets 17:02:16 0° 170° (S) 3,486 7.3 -5.6°
